Weather History for Aydin, Turkey

Change the Weather History Date:

Thursday, January 16, 2014

  Actual Average Record
Temperature  
Mean Temperature 54 °F -  
Max Temperature 57 °F - - ()
Min Temperature 51 °F - - ()
Degree Days  
Heating Degree Days 11    
Growing Degree Days 4 (Base 50)    
Moisture  
Dew Point 50 °F    
Average Humidity 82    
Maximum Humidity 100    
Minimum Humidity 52    
Precipitation  
Precipitation 0.20 in - - ()
Sea Level Pressure  
Sea Level Pressure 30.08 in    
Wind  
Wind Speed 4 mph ()    
Max Wind Speed 9 mph    
Max Gust Speed -    
Visibility 8.6 miles    
Events Rain    
T = Trace of Precipitation, MM = Missing Value Source: Averaged Metar Reports

Daily Weather History Graph

Daily Weather History Graph

Search for Another Location

Airport:

Trip Planner

Search our weather history database for the weather conditions in past years. The results will help you decide how hot, cold, wet, or windy it might be!

Date:

Astronomy

Jan. 16, 2014 Rise Set
Actual Time 7:22 AM EET 5:14 PM EET
Civil Twilight 6:54 AM EET 5:42 PM EET
Nautical Twilight 6:21 AM EET 6:15 PM EET
Astronomical Twilight 5:50 AM EET 6:46 PM EET
Moon 5:46 PM EET (1/16) 7:05 AM EET (1/16)
Length of Visible Light 10h 48m
Length of Day
9h 51m
Full, 100% of the Moon is Illuminated
Jan 16
Full
Jan 24
Last Quarter
Jan 30
New
Feb 6
First Quarter
Feb 15
Full

Hourly Weather History & Observations

Time (EET) Temp. Dew Point Humidity Pressure Visibility Wind Dir Wind Speed Gust Speed Precip Events Conditions
2:00 AM 59 °F 46 °F 52% 30.09 in 12 mi East 2.3 mph - -   Partly Cloudy
5:00 AM 55 °F 46 °F 62% 30.09 in 12 mi ENE 2.3 mph - -   Partly Cloudy
6:40 AM 51.8 °F 50.0 °F 94% 30.06 in 6.2 mi ENE 6.9 mph - N/A   Mostly Cloudy
6:50 AM 51.8 °F 50.0 °F 94% 30.06 in 6.2 mi East 6.9 mph - N/A   Mostly Cloudy
7:50 AM 51.8 °F 50.0 °F 94% 30.09 in 6.2 mi NE 5.8 mph - N/A   Mostly Cloudy
8:00 AM 53 °F 46 °F 69% 30.10 in 12 mi East 2.3 mph - -   Scattered Clouds
8:50 AM 51.8 °F 50.0 °F 94% 30.09 in 6.2 mi East 5.8 mph - N/A   Mostly Cloudy
9:00 AM 55 °F 46 °F 64% 30.11 in 12 mi ENE 2.3 mph - -   Overcast
9:50 AM 53.6 °F 51.8 °F 94% 30.09 in 6.2 mi ENE 9.2 mph - N/A   Mostly Cloudy
10:00 AM 56 °F 46 °F 61% 30.11 in 12 mi East 3.5 mph - -   Overcast
10:50 AM 55.4 °F 50.0 °F 82% 30.09 in 6.2 mi ENE 8.1 mph - N/A   Mostly Cloudy
11:00 AM 57 °F 46 °F 57% 30.10 in 12 mi East 4.6 mph - -   Mostly Cloudy
11:50 AM 55.4 °F 51.8 °F 88% 30.06 in 6.2 mi ENE 8.1 mph - N/A Rain Light Rain Showers
12:00 PM 57 °F 47 °F 60% 30.08 in 12 mi East 3.5 mph - -   Mostly Cloudy
12:50 PM 55.4 °F 55.4 °F 100% 30.06 in 6.2 mi ENE 2.3 mph - N/A Rain Light Rain Showers
1:00 PM 55 °F 51 °F 82% 30.09 in 6 mi East 2.3 mph - - Rain Light Rain Showers
1:50 PM 55.4 °F 55.4 °F 100% 30.06 in 6.2 mi NE 4.6 mph - N/A Rain Light Rain Showers
2:00 PM 55 °F 52 °F 84% 30.08 in 6 mi ENE 2.3 mph - - Rain Light Rain Showers
2:50 PM 55.4 °F 55.4 °F 100% 30.06 in 6.2 mi ENE 4.6 mph - N/A Rain Light Rain Showers
3:00 PM 54 °F 51 °F 85% 30.07 in 6 mi East 3.5 mph - - Rain Light Rain Showers
3:50 PM 55.4 °F 55.4 °F 100% 30.06 in 6.2 mi East 5.8 mph - N/A   Mostly Cloudy
4:00 PM 54 °F 49 °F 79% 30.07 in 12 mi East 3.5 mph - - Rain Light Rain Showers
4:50 PM 53.6 °F 53.6 °F 100% 30.06 in 6.2 mi East 6.9 mph - N/A   Mostly Cloudy
5:00 PM 54 °F 49 °F 76% 30.08 in 12 mi East 3.5 mph - -   Partly Cloudy
8:00 PM 53 °F 49 °F 82% 30.11 in 12 mi East 2.3 mph - -   Partly Cloudy
11:00 PM 51 °F 48 °F 87% 30.12 in 12 mi East 2.3 mph - -   Mostly Cloudy